[[{"header":{"parameterUnit":"m.s-1","parameterCategory":1,"la1":30.2992,"la2":30.254,"lo1":-89.0895,"lo2":-89.0443,"dy":0.0025,"dx":0.0025,"nx":19,"ny":19,"refTime":"2026-03-23T03:00:00:Z","depth":0,"parameterNumber":2,"parameterNumberName":"U-component_of_WINDS"},"data":[0,0,0,-0.3148,-0.3149,-0.317,-0.317,-0.3219,-0.3219,0,0,0,0,0,0,0,0,0,0,0,-0.3153,-0.3154,-0.3148,-0.3149,-0.317,-0.317,-0.3218,-0.3219,0,0,0,0,0,0,0,0,0,0,0,-0.3153,-0.3154,-0.3154,-0.3149,-0.317,-0.317,-0.3218,-0.3195,0,0,0,0,0,0,0,0,0,0,-0.3171,-0.3186,-0.3153,-0.3154,-0.3149,-0.317,-0.317,-0.3194,-0.3197,-0.3218,0,-0.3237,0,-0.3229,-0.3224,-0.3224,0,0,0,-0.3141,-0.3183,-0.3179,-0.3154,-0.315,-0.317,-0.3159,-0.3195,-0.3199,-0.3222,-0.3238,-0.3239,-0.323,-0.3224,-0.3224,-0.3366,-0.3367,0,0,-0.314,-0.3163,-0.3177,-0.3182,-0.3178,-0.3158,-0.3159,-0.3197,-0.3217,-0.3238,-0.324,-0.3231,-0.3224,-0.3225,-0.3365,-0.3367,0,0,0,-0.3142,-0.3163,-0.3157,-0.318,-0.3182,-0.3159,-0.316,-0.3215,-0.3211,-0.324,-0.3231,-0.3225,-0.3226,-0.3364,-0.3366,-0.3438,0,0,0,-0.3141,-0.3164,-0.3157,-0.3171,-0.3182,-0.3199,-0.3178,-0.3209,-0.3212,-0.3231,-0.3225,-0.3226,-0.3363,-0.3365,-0.3434,-0.3469,0,0,0,-0.3148,-0.3164,-0.3171,-0.3172,-0.3182,-0.3197,-0.3195,-0.3209,-0.3207,-0.3224,-0.3226,-0.3362,-0.3365,-0.343,-0.3462,-0.3514,0,0,0,-0.3162,-0.3235,-0.3172,-0.3251,-0.3182,-0.3241,-0.3195,-0.3238,-0.3261,-0.3225,-0.3363,-0.3366,-0.3428,-0.3458,-0.351,-0.3561,-0.3585,0,0,-0.3267,-0.3249,-0.3293,-0.3237,-0.3314,-0.3236,-0.3324,-0.3324,-0.3306,-0.3348,-0.3351,-0.3435,-0.3462,-0.3513,-0.3707,-0.3725,0,0,0,-0.3334,-0.3367,-0.3382,-0.3404,-0.3405,-0.3409,-0.3393,-0.3394,-0.3428,-0.3331,-0.3466,-0.3482,-0.3511,-0.3534,-0.355,-0.3574,-0.3377,-0.3377,-0.3377,-0.3516,-0.3488,-0.3559,-0.3534,-0.3556,-0.3539,-0.3555,-0.3553,-0.3518,-0.3551,-0.3564,-0.3684,-0.3713,-0.3725,-0.375,-0.3588,-0.3588,-0.3588,-0.3589,-0.3668,-0.371,-0.3661,-0.3713,-0.3684,-0.3728,-0.3716,-0.369,-0.3728,-0.3672,-0.3696,-0.3639,-0.3746,-0.3767,-0.3594,-0.3593,-0.3592,-0.3592,-0.3591,-0.3785,-0.38,-0.3798,-0.3827,-0.3854,-0.3826,-0.3865,-0.3837,-0.3811,-0.3834,-0.3845,-0.3844,-0.384,-0.3841,-0.3842,-0.3842,-0.3843,-0.3843,-0.3843,-0.3907,-0.3902,-0.3937,-0.3945,-0.3956,-0.3967,-0.3952,-0.3962,-0.3968,-0.3944,-0.3944,-0.3908,-0.3761,-0.3726,-0.385,-0.3848,-0.3848,-0.3847,-0.3847,-0.4073,-0.403,-0.4085,-0.4096,-0.4103,-0.4133,-0.4096,-0.4121,-0.4126,-0.4146,-0.4104,-0.4,-0.398,-0.3967,-0.3938,-0.4109,-0.4109,-0.4109,-0.4109,-0.4172,-0.4158,-0.4208,-0.4227,-0.4244,-0.4216,-0.4281,-0.4271,-0.4254,-0.4256,-0.4227,-0.4185,-0.4173,-0.416,-0.4143,-0.4115,-0.4327,-0.4328,-0.4328,-0.4273,-0.4259,-0.4319,-0.43,-0.4304,-0.4309,-0.4369,-0.4396,-0.4368,-0.4336,-0.4257,-0.4248,-0.418,-0.4159,-0.4126,-0.41,-0.4048,0,0]},{"header":{"parameterUnit":"m.s-1","parameterCategory":1,"la1":30.2992,"la2":30.254,"lo1":-89.0895,"lo2":-89.0443,"dy":0.0025,"dx":0.0025,"nx":19,"ny":19,"refTime":"2026-03-23T03:00:00:Z","depth":0,"parameterNumber":3,"parameterNumberName":"V-component_of_WINDS"},"data":[0,0,0,1.6267,1.6267,1.6288,1.6288,1.6298,1.6298,0,0,0,0,0,0,0,0,0,0,0,1.6253,1.6252,1.6267,1.6267,1.6288,1.6288,1.6298,1.6298,0,0,0,0,0,0,0,0,0,0,0,1.6253,1.6252,1.6252,1.6267,1.6287,1.6288,1.6298,1.6288,0,0,0,0,0,0,0,0,0,0,1.6271,1.625,1.6252,1.6252,1.6267,1.6287,1.6288,1.6288,1.6289,1.6282,0,1.6275,0,1.6287,1.6298,1.6298,0,0,0,1.6273,1.6249,1.6262,1.6252,1.6267,1.6287,1.628,1.6288,1.6289,1.6283,1.6276,1.6276,1.6287,1.6298,1.6298,1.6241,1.6241,0,0,1.6272,1.6252,1.6261,1.6262,1.6259,1.6279,1.6281,1.6289,1.6279,1.6276,1.6277,1.6287,1.6298,1.6298,1.6242,1.6241,0,0,0,1.6265,1.625,1.6264,1.6261,1.6266,1.628,1.6281,1.6279,1.6285,1.6277,1.6287,1.6298,1.6297,1.6242,1.6241,1.6192,0,0,0,1.6264,1.6246,1.6263,1.625,1.6266,1.6273,1.627,1.6284,1.6286,1.6287,1.6298,1.6297,1.6243,1.6242,1.6195,1.6172,0,0,0,1.6254,1.6245,1.6245,1.6249,1.6257,1.6273,1.628,1.6285,1.6292,1.6298,1.6297,1.6243,1.6242,1.6198,1.6176,1.6149,0,0,0,1.6237,1.6203,1.6244,1.621,1.6257,1.6244,1.628,1.6272,1.6271,1.6298,1.6243,1.6241,1.6198,1.6179,1.6152,1.6121,1.6107,0,0,1.6182,1.6196,1.6177,1.6215,1.6188,1.6242,1.6209,1.6228,1.6248,1.6242,1.6241,1.6194,1.6177,1.615,1.604,1.6029,0,0,0,1.6153,1.6139,1.6136,1.6135,1.6149,1.6157,1.6184,1.6191,1.6187,1.6241,1.6179,1.6169,1.6154,1.6141,1.6131,1.6118,1.6235,1.6235,1.6235,1.6045,1.6072,1.6042,1.607,1.6067,1.6094,1.6094,1.6108,1.6136,1.6121,1.6118,1.6049,1.6032,1.6025,1.6011,1.6107,1.6106,1.6106,1.6106,1.5966,1.5949,1.5986,1.597,1.5997,1.5984,1.6008,1.6028,1.6018,1.6053,1.6041,1.6075,1.6012,1.6001,1.6103,1.6103,1.6104,1.6104,1.6104,1.5896,1.5893,1.5901,1.59,1.5895,1.5926,1.5914,1.594,1.5965,1.5953,1.5951,1.5952,1.5954,1.5951,1.5951,1.595,1.595,1.595,1.595,1.582,1.5831,1.5818,1.5829,1.5829,1.5834,1.5859,1.5861,1.5869,1.5889,1.5889,1.5916,1.6002,1.6021,1.5946,1.5947,1.5947,1.5948,1.5948,1.5725,1.5751,1.573,1.5731,1.5744,1.5736,1.577,1.577,1.5775,1.5767,1.5798,1.5857,1.5873,1.588,1.5896,1.5794,1.5794,1.5794,1.5794,1.5665,1.5675,1.5659,1.5658,1.566,1.5688,1.5662,1.568,1.5704,1.5708,1.5727,1.5751,1.5758,1.5769,1.5779,1.5794,1.5668,1.5668,1.5668,1.5607,1.5618,1.5592,1.5615,1.5626,1.5634,1.561,1.5606,1.5638,1.5663,1.5711,1.5716,1.5755,1.5768,1.5792,1.5808,1.5836,0,0]}]]